{"data":{"norad_id":56036,"intl_designator":"2023-042BC","name":"STARLINK-5790","alt_names":[],"object_type":"PAYLOAD","status":"ACTIVE","operator":null,"country":"US","launch_date":"2023-03-24","launch_site_code":"AFETR","launch_vehicle":null,"mission":null,"orbit_class":"UNKNOWN","rcs_meters":null,"size_class":null,"mass_kg":null,"dimensions":null,"purposes":["comms"],"wikipedia_slug":null,"has_3d_model":false,"image_url":null,"decayed_at":null,"tle_current":{"epoch":"2026-05-24T20:42:00.476064Z","epoch_age_seconds":90115,"freshness":"FRESH","line1":"1 56036U 23042BC  26144.86250551  .00000805  00000+0  38789-4 0  9991","line2":"2 56036  43.0045 335.1479 0002219 256.6632 103.3972 15.27587636174685","mean_motion":15.27587636,"eccentricity":0.0002219,"inclination_deg":43.0045,"raan_deg":335.1479,"arg_perigee_deg":256.6632,"mean_anomaly_deg":103.3972,"bstar":3.8789e-5,"rev_number":17468,"period_min":94.266277499512,"perigee_km":481.50373908286,"apogee_km":484.54872332487,"semimajor_km":6861.1632312039,"source":"CELESTRAK","updated_at":"2026-05-25T13:38:17.951753Z"}}}